QFA449 YSSY-YMML

Flight info

Callsign QFA449
Flight time N/A
Altitude 38000
Route MARUB7/34R WOL H65 LEECE Q29 ML
Aircraft A333/H-SDE3GHIJ2J3J5M1RVWXY/LB2D1

Departure

Time 2026-04-26 03:29
Airport Sydney Kingsford Smith International Airport (YSSY)

Arrival

Time N/A
Airport Melbourne Airport (YMML)
Time Latitude Longitude Altitude Speed Heading
2026-04-26 02:57 -33.93264 151.17679 34 ft 0 kts 83°
2026-04-26 03:06 -33.93265 151.17670 34 ft 5 kts 83°
2026-04-26 03:06 -33.93270 151.17628 34 ft 5 kts 83°
2026-04-26 03:06 -33.93273 151.17585 34 ft 5 kts 92°
2026-04-26 03:06 -33.93257 151.17563 30 ft 0 kts 172°
2026-04-26 03:09 -33.93260 151.17564 34 ft 0 kts 172°
2026-04-26 03:10 -33.93262 151.17564 34 ft 0 kts 172°
2026-04-26 03:11 -33.93276 151.17567 26 ft 9 kts 171°
2026-04-26 03:12 -33.93340 151.17582 34 ft 4 kts 168°
2026-04-26 03:12 -33.93379 151.17590 34 ft 7 kts 171°
2026-04-26 03:12 -33.93434 151.17590 33 ft 9 kts 187°
2026-04-26 03:12 -33.93511 151.17592 31 ft 10 kts 170°
2026-04-26 03:13 -33.93573 151.17606 31 ft 8 kts 169°
2026-04-26 03:13 -33.93631 151.17628 32 ft 9 kts 156°
2026-04-26 03:13 -33.93689 151.17670 31 ft 12 kts 143°
2026-04-26 03:13 -33.93744 151.17757 29 ft 13 kts 130°
2026-04-26 03:14 -33.93841 151.17771 25 ft 14 kts 186°
2026-04-26 03:14 -33.93927 151.17789 28 ft 12 kts 166°
2026-04-26 03:14 -33.94007 151.17810 27 ft 12 kts 169°
2026-04-26 03:14 -33.94099 151.17824 27 ft 13 kts 180°
2026-04-26 03:15 -33.94165 151.17847 28 ft 9 kts 167°
2026-04-26 03:15 -33.94227 151.17862 28 ft 10 kts 170°
2026-04-26 03:15 -33.94303 151.17883 28 ft 11 kts 167°
2026-04-26 03:15 -33.94382 151.17905 28 ft 12 kts 167°
2026-04-26 03:16 -33.94470 151.17897 28 ft 14 kts 202°
2026-04-26 03:16 -33.94570 151.17896 27 ft 15 kts 169°
2026-04-26 03:16 -33.94671 151.17922 27 ft 16 kts 166°
2026-04-26 03:16 -33.94791 151.17954 27 ft 19 kts 168°
2026-04-26 03:17 -33.94905 151.17983 28 ft 13 kts 168°
2026-04-26 03:17 -33.94993 151.18005 28 ft 13 kts 168°
2026-04-26 03:17 -33.95074 151.18034 30 ft 12 kts 148°
2026-04-26 03:17 -33.95098 151.18125 29 ft 13 kts 83°
2026-04-26 03:18 -33.95078 151.18240 28 ft 14 kts 77°
2026-04-26 03:18 -33.95056 151.18357 29 ft 14 kts 80°
2026-04-26 03:18 -33.95049 151.18404 30 ft 1 kts 79°
2026-04-26 03:18 -33.95049 151.18406 30 ft 0 kts 79°
2026-04-26 03:20 -33.95048 151.18411 30 ft 2 kts 79°
2026-04-26 03:20 -33.95044 151.18433 30 ft 5 kts 79°
2026-04-26 03:21 -33.95060 151.18500 31 ft 12 kts 140°
2026-04-26 03:21 -33.95150 151.18582 30 ft 21 kts 132°
2026-04-26 03:21 -33.95236 151.18672 30 ft 10 kts 147°
2026-04-26 03:21 -33.95302 151.18712 29 ft 11 kts 159°
2026-04-26 03:22 -33.95383 151.18739 27 ft 13 kts 170°
2026-04-26 03:22 -33.95461 151.18760 30 ft 8 kts 167°
2026-04-26 03:22 -33.95520 151.18775 26 ft 9 kts 167°
2026-04-26 03:22 -33.95581 151.18791 28 ft 9 kts 171°
2026-04-26 03:23 -33.95637 151.18805 29 ft 8 kts 168°
2026-04-26 03:23 -33.95695 151.18821 29 ft 9 kts 167°
2026-04-26 03:23 -33.95760 151.18837 29 ft 10 kts 168°
2026-04-26 03:23 -33.95832 151.18856 30 ft 11 kts 167°
2026-04-26 03:24 -33.95906 151.18874 31 ft 11 kts 168°
2026-04-26 03:24 -33.95983 151.18895 31 ft 12 kts 167°
2026-04-26 03:24 -33.96072 151.18918 30 ft 14 kts 167°
2026-04-26 03:24 -33.96169 151.18948 29 ft 13 kts 167°
2026-04-26 03:25 -33.96260 151.18968 30 ft 13 kts 158°
2026-04-26 03:25 -33.96342 151.18989 29 ft 13 kts 163°
2026-04-26 03:25 -33.96439 151.19014 29 ft 16 kts 168°
2026-04-26 03:25 -33.96544 151.19040 24 ft 14 kts 168°
2026-04-26 03:26 -33.96625 151.19061 24 ft 6 kts 168°
2026-04-26 03:26 -33.96672 151.19073 24 ft 8 kts 168°
2026-04-26 03:26 -33.96744 151.19074 26 ft 13 kts 184°
2026-04-26 03:26 -33.96843 151.19075 24 ft 15 kts 171°
2026-04-26 03:27 -33.96940 151.19100 26 ft 13 kts 169°
2026-04-26 03:27 -33.97032 151.19124 27 ft 14 kts 168°
2026-04-26 03:27 -33.97121 151.19165 27 ft 14 kts 133°
2026-04-26 03:27 -33.97124 151.19265 28 ft 12 kts 75°
2026-04-26 03:28 -33.97095 151.19355 29 ft 11 kts 58°
2026-04-26 03:28 -33.97045 151.19374 27 ft 5 kts 349°
2026-04-26 03:28 -33.96975 151.19355 24 ft 31 kts 347°
2026-04-26 03:28 -33.96474 151.19225 30 ft 113 kts 348°
2026-04-26 03:29 -33.95492 151.18965 212 ft 167 kts 349°
2026-04-26 03:29 -33.94247 151.18660 879 ft 194 kts 353°
2026-04-26 03:29 -33.92857 151.18635 1971 ft 200 kts 15°
2026-04-26 03:29 -33.91755 151.19570 2994 ft 201 kts 54°
2026-04-26 03:30 -33.91476 151.21190 3840 ft 202 kts 99°
2026-04-26 03:30 -33.92213 151.22584 4595 ft 206 kts 141°
2026-04-26 03:30 -33.93465 151.23485 5153 ft 213 kts 144°
2026-04-26 03:30 -33.94300 151.24907 5763 ft 212 kts 102°
2026-04-26 03:31 -33.94303 151.26683 6418 ft 216 kts 82°
2026-04-26 03:31 -33.94180 151.28504 7135 ft 221 kts 93°
2026-04-26 03:31 -33.94555 151.30310 7940 ft 225 kts 117°
2026-04-26 03:31 -33.95594 151.31706 8749 ft 226 kts 147°
2026-04-26 03:32 -33.97060 151.32184 9529 ft 216 kts 183°
2026-04-26 03:32 -33.98443 151.31594 9851 ft 218 kts 212°
2026-04-26 03:32 -33.99661 151.30507 10120 ft 217 kts 218°
2026-04-26 03:32 -34.00857 151.29343 10254 ft 225 kts 218°
2026-04-26 03:33 -34.02096 151.28150 10518 ft 229 kts 218°
2026-04-26 03:33 -34.03355 151.26966 10830 ft 231 kts 217°
2026-04-26 03:33 -34.04632 151.25785 11102 ft 231 kts 217°
2026-04-26 03:33 -34.05952 151.24580 11473 ft 242 kts 217°
2026-04-26 03:34 -34.07306 151.23349 12162 ft 245 kts 216°
2026-04-26 03:34 -34.08667 151.22113 12933 ft 245 kts 217°
2026-04-26 03:34 -34.10018 151.20887 13650 ft 247 kts 216°
2026-04-26 03:34 -34.11395 151.19632 14331 ft 250 kts 217°
2026-04-26 03:35 -34.12793 151.18362 14950 ft 253 kts 216°
2026-04-26 03:35 -34.14206 151.17083 15588 ft 255 kts 216°
2026-04-26 03:35 -34.15635 151.15789 16202 ft 258 kts 216°
2026-04-26 03:35 -34.17085 151.14475 16786 ft 263 kts 216°
2026-04-26 03:36 -34.18565 151.13131 17282 ft 272 kts 216°
2026-04-26 03:36 -34.20125 151.11715 17553 ft 289 kts 216°
2026-04-26 03:36 -34.21759 151.10231 17822 ft 306 kts 216°
2026-04-26 03:36 -34.23507 151.08642 18103 ft 323 kts 216°
2026-04-26 03:37 -34.25349 151.06966 18377 ft 339 kts 217°
2026-04-26 03:37 -34.27275 151.05213 18630 ft 354 kts 216°
2026-04-26 03:37 -34.29282 151.03384 18851 ft 368 kts 217°
2026-04-26 03:37 -34.31366 151.01484 19067 ft 382 kts 217°
2026-04-26 03:38 -34.33522 150.99518 19267 ft 394 kts 217°